Current weather by "City, St" or "zip code"  
 

Current Conditions: Aurora State Airport, OR

Fog/Mist


50.0 F

Last Updated on Oct 24 2020, 9:53 am PDT
Humidity: 89%
Wind Speed: N 10.4 mph
Barometer 30.12 in
Dewpoint: 46.9 F
Visibility: 3.00 mi
Precip: --
Heat Index: NA
Wind Chill: 46 F
Current conditions at:

Aurora State Airport, OR (KUAO)

Lat: 45.24658 Lon: 122.77095

Local Radar Image active severe weather and emergency alerts image image weather storm and storm spotter reports image weather observation monitoring service image
Local
Radar
Active
Alerts
Storm Reports Obs
Monitoring

Sign-up For Email & Text Message Weather Alert Notification Services



Advertise Here

Observation History for Aurora State Airport, OR


Time Wind
(mph)
Vis
(mi)
Weather Precip (in) Temperature (F) Relative
Humidity
Wind
Chill
(F)
Heat
Index
(F)
Pressure
Air Dwpt altimeter
(in)
sea level
(mb)
Rmks
9:53 am PDT N 10.4 3.00 Fog/Mist -- 50.0 46.9 89% 46 NA 30.12 1020.0
8:53 am PDT NE 5.8 6.00 Fog/Mist 00.04 50.0 46.0 86% 48 NA 30.10 1019.4
7:53 am PDT N 6.9 6.00 Fog/Mist -- 50.0 46.0 86% 47 NA 30.09 1018.8
6:53 am PDT N 0.0 10.00 Overcast -- 50.0 45.0 83% NA NA 30.07 1018.0
5:53 am PDT S 3.5 10.00 Overcast -- 50.0 46.0 86% NA NA 30.04 1017.0
4:53 am PDT N 0.0 10.00 Overcast -- 51.0 46.0 83% NA NA 30.02 1016.4
3:53 am PDT SW 3.5 10.00 Fair -- 52.0 46.9 83% NA NA 30.00 1015.6
2:53 am PDT S 6.9 10.00 Fair -- 53.0 46.9 80% 51 NA 29.98 1014.9
1:53 am PDT SW 6.9 10.00 Fair -- 55.0 48.9 80% 53 NA 29.96 1014.4
12:53 am PDT SW 6.9 10.00 Fair -- 55.0 51.1 87% 53 NA 29.94 1013.9
11:53 pm PDT S 9.2 10.00 Mostly Cloudy -- 55.0 51.1 87% 52 NA 29.93 1013.3
10:53 pm PDT S 11.5 G 19.6 10.00 A Few Clouds -- 55.0 50.0 83% 52 NA 29.91 1012.8
9:53 pm PDT SW 10.4 10.00 Overcast -- 55.0 50.0 83% 52 NA 29.92 1013.2
8:53 pm PDT S 18.4 G 26.5 10.00 Overcast Trace 54.0 48.9 83% 49 NA 29.91 1012.7
7:53 pm PDT SW 11.5 G 23.0 10.00 Overcast -- 56.0 46.9 72% 53 NA 29.92 1013.2
6:53 pm PDT S 8.1 G 19.6 10.00 Overcast -- 57.0 44.1 62% 55 NA 29.92 1013.2
5:53 pm PDT S 12.7 G 21.9 10.00 Overcast -- 57.0 41.0 55% 54 NA 29.93 1013.4
4:53 pm PDT S 11.5 G 20.7 10.00 Overcast -- 56.0 39.9 55% 53 NA 29.95 1014.2
3:53 pm PDT SW 9.2 10.00 Overcast -- 55.0 39.0 55% 52 NA 29.98 1015.2
2:53 pm PDT SW 8.1 10.00 Overcast -- 54.0 37.0 53% 52 NA 29.99 1015.6
1:53 pm PDT S 10.4 G 18.4 10.00 Overcast -- 53.0 37.0 55% 50 NA 30.02 1016.5
12:53 pm PDT S 8.1 10.00 Overcast -- 50.0 37.9 63% 47 NA 30.06 1017.9
11:53 am PDT SW 5.8 10.00 Overcast -- 48.0 37.9 68% 45 NA 30.10 1019.2
10:53 am PDT SW 4.6 10.00 Overcast -- 44.0 37.0 76% 41 NA 30.13 1020.1

Regional Weather Observation


Aurora State Airport, OR (KUAO)

Fog/Mist
50.0 F

McMinnville, McMinnville Municipal Airport, OR (KMMV)

Fair
55.0 F

Scappoose Industrial Airpark, OR (KSPB)

Overcast
48.0 F

Pearson Airfield, WA (KVUO)

Overcast
48.0 F

Portland, Portland International Airport, OR (KPDX)

Light Rain
47.0 F

Portland, Portland-Troutdale Airport, OR (KTTD)

Overcast
48.0 F